Location: *
(43.0409°N, 0.1694°E)
Time: 13:25:35
(UTC+00:00)

Cosmos 2322 - Pass Details

Date: 03 October 2023
Orbit: 842 x 852 km, 71.0° (Epoch: 01 December)

Event Time Altitude Azimuth Distance (km) Brightness Sun altitude
Rises 04:31:20 0° 325° (NW) 3,422 6.6 -16.7°
Reaches altitude 10° 04:34:04 10° 315° (NW) 2,480 5.8 -16.2°
Maximum altitude 04:38:52 29° 257° (WSW) 1,513 4.4 -15.3°
Drops below altitude 10° 04:43:38 10° 199° (SSW) 2,459 5.9 -14.5°
Sets 04:46:21 0° 188° (S) 3,388 6.7 -14.0°
